Regional Weather Roundup
Issued by NWS

Home | Current Version | Previous Version | Graphics & Text | Print | Product List | Glossary On
Versions: 1 2 3 4 5 6 7 8 9 10 11 12 13 14 15 16 17 18 19 20 21 22 23 24 25 26 27 28 29 30 31 32 33 34 35 36 37 38 39 40 41 42 43 44 45 46 47 48 49 50
000
ASUS43 KDMX 051108
RWRIA

WEATHER ROUNDUP FOR IOWA
NATIONAL WEATHER SERVICE DES MOINES IA
500 AM CST FRI FEB 05 2016

NOTE: "FAIR" INDICATES FEW OR NO CLOUDS BELOW 12,000 FEET WITH NO
SIGNIFICANT WEATHER AND/OR OBSTRUCTIONS TO VISIBILITY.

* - THESE STATIONS ARE NOT NWS STATIONS...THUS NOT UNDER NWS
QUALITY CONTROL.  THEY ALSO DO NOT REPORT WEATHER SUCH
AS PRECIPITATION OR FOG.

IAZ001>003-012>014-020>022-031>034-043>046-051200-
   NORTHWEST IOWA

CITY           SKY/WX    TMP DP  RH WIND       PRES   REMARKS
CARROLL *      CLEAR      9   7  92 CALM      30.33S
CHEROKEE *     PTCLDY     5   3  92 CALM      30.30F
DENISON *      CLEAR      7   5  92 CALM      30.30S
LE MARS *      CLEAR      9   9 100 S5        30.30S WCI   0
ORANGE CITY *  CLEAR     12  12 100 CALM      30.27R
SHELDON *      CLEAR     10  10 100 S7        30.26S WCI   0
SIOUX CITY     CLOUDY     7   3  84 SE8       30.30S WCI  -6
SPENCER        CLOUDY     8   2  76 S3        30.29S
STORM LAKE *   CLEAR     14  14 100 SW10      30.29S WCI   1
$$

IAZ055>058-069>071-079>083-090>094-051200-
   SOUTHWEST IOWA

CITY           SKY/WX    TMP DP  RH WIND       PRES   REMARKS
ATLANTIC *     CLEAR      7   5  92 N5        30.35S FOG     WCI  -2
AUDUBON *      PTCLDY     3   0  85 CALM      30.33S FOG
CLARINDA *     CLEAR     21  21 100 CALM      30.38S
COUNCIL BLFS * CLEAR     18  16  93 SE6       30.33S FOG     WCI   9
CRESTON *      CLEAR     16  14  93 CALM      30.35S
HARLAN  *      FOG        7   5  92 CALM      30.37S VSB 0
LAMONI         PTCLDY    19  15  84 NE5       30.35S WCI  12
RED OAK *      MOCLDY    18  18 100 CALM      30.36S
SHENANDOAH *   CLEAR     21  21 100 CALM      30.37S
$$

IAZ047>049-059>061-072>074-084-051200-
   CENTRAL IOWA

CITY           SKY/WX    TMP DP  RH WIND       PRES   REMARKS
AMES           CLOUDY     9   7  92 CALM      30.35S
ANKENY *       CLEAR     14  12  92 CALM      30.36S
BOONE *        CLEAR      9   7  92 CALM      30.32S
CHARITON *     CLOUDY    18  14  86 CALM      30.36S
DES MOINES     CLOUDY    16  12  84 CALM      30.36S
GRINNELL*      PTCLDY    14  12  92 NW3       30.36R
KNOXVILLE *    PTCLDY    18  12  79 CALM      30.35S
MARSHALLTOWN   CLOUDY     9   7  92 CALM      30.34S
NEWTON *       CLEAR     14  14 100 CALM      30.35F
PELLA *        CLOUDY    16  14  93 NW3       30.38S
$$

IAZ004>006-015-016-023>025-035-036-051200-
   NORTH CENTRAL IOWA

CITY           SKY/WX    TMP DP  RH WIND       PRES   REMARKS
ALGONA *       CLEAR      9   7  92 S5        30.31R WCI   0
CLARION *      CLEAR      5   1  85 CALM      30.34R
ESTHERVILLE    CLOUDY     5   3  91 S6        30.29S WCI  -6
FORT DODGE *   CLOUDY     7   0  72 CALM      30.33S
MASON CITY     CLOUDY     3   1  91 W6        30.34R WCI  -8
FOREST CITY *  PTCLDY     1  -4  78 CALM      30.31S
WEBSTER CITY * CLEAR      7   3  85 CALM      30.32R
IOWA FALLS *     N/A      7   3  85 CALM      30.34R
$$

IAZ007>011-017>019-026>030-037>042-050>054-066-051200-
   NORTHEAST IOWA

CITY           SKY/WX    TMP DP  RH WIND       PRES   REMARKS
CEDAR RAPIDS   CLOUDY    15  13  91 NW6       30.34R WCI   6
CHARLES CITY * CLEAR      3   1  92 CALM      30.33R
CLINTON *      CLOUDY    26  21  81 NW12      30.33R WCI  16
DECORAH *      CLEAR      9   7  92 CALM      30.31R
DUBUQUE        CLOUDY    23  18  81 NW12      30.31R WCI  12
MONTICELLO *   CLOUDY    23  18  80 NW7       30.34R WCI  15
OELWEIN *      CLEAR      7   3  85 NW7       30.33S WCI  -5
WATERLOO       PTCLDY     3   1  91 CALM      30.34F
$$

IAZ064-065-067-068-078-051200-
   EAST CENTRAL IOWA

CITY           SKY/WX    TMP DP  RH WIND       PRES   REMARKS
DAVENPORT      CLOUDY    25  17  72 NW13      30.34R WCI  14
IOWA CITY      CLOUDY    19  14  81 NW6       30.37R WCI  11
MT. PLEASANT * CLOUDY    23  19  86 NW3       30.36S
MUSCATINE *    CLOUDY    23  18  80 NW7       30.37S WCI  15
QUAD CITIES    CLOUDY    27  18  69 W9        30.34R WCI  18
$$

IAZ062-063-075>077-085>089-095>099-051200-
   SOUTHEAST IOWA

CITY           SKY/WX    TMP DP  RH WIND       PRES   REMARKS
BURLINGTON     CLOUDY    24  19  81 NW8       30.35S WCI  15
FAIRFIELD *    CLEAR     19  14  79 NW6       30.37R WCI  11
FORT MADISON * CLEAR     19  18  93 NW5       30.36S WCI  13
KEOKUK *       PTCLDY    23  19  86 NW5       30.37R WCI  17
OSKALOOSA *      N/A     18  16  93 NW6       30.37R WCI   9
CENTERVILLE *  CLEAR     19  16  86 CALM      30.38R
OTTUMWA        CLOUDY    17  14  88 NW6       30.37R WCI   9
WASHINGTON *   CLEAR     19  18  93 NW8       30.37S WCI   9
$$

ABBREVIATIONS USED IN REMARKS
   TC - TEMPERATURES IN CELSIUS
  WCI - WIND CHILL INDEX
   HX - HEAT INDEX
  VSB - VISIBILITY
$$




USA.gov is the U.S. government's official web portal to all federal, state and local government web resources and services.